Regional Weather Roundup
Issued by NWS

Home | Current Version | Previous Version | Graphics & Text | Print | Product List | Glossary On
Versions: 1 2 3 4 5 6 7 8 9 10 11 12 13 14 15 16 17 18 19 20 21 22 23 24 25 26 27 28 29 30 31 32 33 34 35 36 37 38 39 40 41 42 43 44 45 46 47 48 49 50
000
ASUS43 KFSD 201410
RWRSD

WEATHER ROUNDUP FOR SOUTH DAKOTA
NATIONAL WEATHER SERVICE SIOUX FALLS SD
900 AM CDT MON OCT 20 2014

NOTE: "FAIR" INDICATES FEW OR NO CLOUDS BELOW 12,000 FEET WITH NO
SIGNIFICANT WEATHER AND/OR OBSTRUCTIONS TO VISIBILITY.


SDZ001>005-009-010-012>017-201500-
NORTHWEST AND NORTH CENTRAL SOUTH DAKOTA

CITY           SKY/WX    TMP DP  RH WIND       PRES   REMARKS
BUFFALO          N/A     46  36  68 SE6       29.95S
FAITH            N/A     46  38  73 SE12      30.05S
MOBRIDGE       FAIR      41  37  86 SE5       30.06S
$$

SDZ012>016-024>037-041>051-057-063-072>074-201500-
SOUTHWEST AND SOUTH CENTRAL SOUTH DAKOTA

CITY           SKY/WX    TMP DP  RH WIND       PRES   REMARKS
RAPID CTY ARPT FAIR      42  37  82 SE7       30.04S
PIERRE         FAIR      37  33  85 CALM      30.09R
CUSTER         FAIR      48  34  58 W3        30.12S
ELLSWORTH AFB  CLEAR     48  38  69 S7        30.04R
PHILIP         FAIR      36  31  82 CALM      30.08R
PINE RIDGE     FAIR      40  36  86 CALM      30.08R
SPEARFISH      FAIR      45  37  76 CALM      30.03S HAZE
WINNER         FAIR      45  36  70 SE3       30.11R
$$

SDZ004>011-016>023-039-040-201500-
NORTHEAST SOUTH DAKOTA

CITY           SKY/WX    TMP DP  RH WIND       PRES   REMARKS
ABERDEEN       FAIR      36  30  79 CALM      30.09R
WATERTOWN      FAIR      38  36  92 CALM      30.08R
SISSETON         N/A     43  37  79 N3        30.06R
$$

SDZ017-020-022-023-036>040-048>070-201500-
SOUTHEAST SOUTH DAKOTA

CITY           SKY/WX    TMP DP  RH WIND       PRES   REMARKS
SIOUX FALLS    FAIR      44  40  85 CALM      30.09R
HURON          FAIR      40  35  83 CALM      30.10R
CHAMBERLAIN    FAIR      35  33  90 CALM      30.11R
MITCHELL       FAIR      42  36  79 CALM      30.11R
YANKTON        FAIR      43  39  87 W6        30.11R
$$

ABBREVIATIONS USED IN REMARKS
   TC - TEMPERATURE IN CELSIUS
  WCI - WIND CHILL INDEX
   HX - HEAT INDEX
  VSB - VISIBILITY




USA.gov is the U.S. government's official web portal to all federal, state and local government web resources and services.